This is the latest recevied weather packets stored in our database for station/object K5GTX. If no packets are shown the sender has not sent any weather packets the latest 10 day(s).
| Time | Temp. | Humidity | Pressure | Rain* | Wind** | Luminosity | Snow |
|---|---|---|---|---|---|---|---|
| 1777992405 | 24.44° C | 99% | 1011.3 hPa | 0 mm | - | 321 W/m² | - |
| 1777992103 | 24.44° C | 99% | 1011.4 hPa | 0 mm | - | 294 W/m² | - |
| 1777991800 | 24.44° C | 99% | 1011.2 hPa | 0 mm | - | 229 W/m² | - |
| 1777991497 | 23.89° C | 99% | 1011 hPa | 0 mm | - | 224 W/m² | - |
| 1777991195 | 23.89° C | 99% | 1011.2 hPa | 0 mm | - | 172 W/m² | - |
| 1777990892 | 23.89° C | 99% | 1011.5 hPa | 0 mm | - | 206 W/m² | - |
| 1777990590 | 23.89° C | 99% | 1011.4 hPa | 0 mm | - | 79 W/m² | - |
| 1777989982 | 23.33° C | 99% | 1011.6 hPa | 0 mm | - | 164 W/m² | - |
| 1777989680 | 22.78° C | 99% | 1011.4 hPa | 0 mm | - | 139 W/m² | - |
| 1777989375 | 22.78° C | 99% | 1011.6 hPa | 0 mm | - | 116 W/m² | - |
| 1777989073 | 22.78° C | 99% | 1011.2 hPa | 0 mm | - | 150 W/m² | - |
| 1777988768 | 22.78° C | 99% | 1010.9 hPa | 0 mm | - | 117 W/m² | - |
| 1777988466 | 22.78° C | 99% | 1011.1 hPa | 0 mm | - | 91 W/m² | - |
| 1777988162 | 22.78° C | 99% | 1011 hPa | 0 mm | - | 88 W/m² | - |
| 1777987858 | 22.78° C | 99% | 1011.1 hPa | 0 mm | - | 97 W/m² | - |
| 1777987555 | 22.78° C | 99% | 1011.5 hPa | 0 mm | - | 76 W/m² | - |
| 1777987253 | 22.78° C | 99% | 1011.4 hPa | 0 mm | - | 88 W/m² | - |
| 1777986949 | 22.78° C | 99% | 1011.4 hPa | 0 mm | - | 65 W/m² | - |
| 1777986647 | 22.22° C | 99% | 1011.4 hPa | 0 mm | - | 72 W/m² | - |
| 1777986345 | 22.22° C | 99% | 1011.2 hPa | 0 mm | - | 87 W/m² | - |
| 1777986043 | 22.22° C | 99% | 1011.1 hPa | 0 mm | - | 46 W/m² | - |
| 1777985739 | 22.22° C | 99% | 1011 hPa | 0 mm | - | 55 W/m² | - |
| 1777985436 | 22.22° C | 99% | 1011 hPa | 0 mm | - | 55 W/m² | - |
| 1777985133 | 22.22° C | 99% | 1010.9 hPa | 0 mm | - | 35 W/m² | - |
| 1777984829 | 22.22° C | 99% | 1011.2 hPa | 0 mm | - | 24 W/m² | - |
* Rain latest hour (hover to see other rain measurements)
** Current wind speed in m/s (hover to see current wind gust speed)